Location: Saluda
(35.2377°N, 82.3468°W)
Time: 05:11:51
(UTC+00:00)

Vanguard 2 - Pass Details

Date: 11 October 2022
Orbit: 553 x 2933 km, 32.9° (Epoch: 26 November)

Event Time Altitude Azimuth Distance (km) Brightness Sun altitude
Rises 23:26:01 0° 276° (W) 5,937 14.3 -6.2°
Reaches altitude 10° 23:30:54 10° 263° (W) 5,242 13.6 -7.2°
Maximum altitude 23:41:59 23° 219° (SW) 4,666 12.0 -9.5°
Drops below altitude 10° 23:54:06 10° 176° (S) 5,706 11.9 -12.0°
Sets 23:59:56 0° 163° (SSE) 6,567 12.1 -13.2°
